Latest Coastal Weather Observations for Lady Elliot Island

IDQ60701

Issued at 5:22 pm EST Sunday 31 July 2016 (issued every 10 minutes, with the page automatically refreshed every 10 minutes)

About coastal observations | Map of coastal stations | Coastal observations for QLD | Marine services | Other Formats
Station Details ID: 039059 Name: LADY ELLIOT ISLAND Lat: -24.11 Lon: 152.72 Height: 3.6 m
Data from the previous 72 hours. | See also: Recent months at Lady Elliot Island
Date/Time
EST
Temp
°C
Wind Pressure Rain since
9am
mm
Weather Cloud Vis
km
Sea
Height
m
Swell
Dir  Spd
kts
Gust
kts
hPa Trend Height
m
Period
s
Dir
31/05:00pm 20.6 SE 10 14 1017.2 - 0.0 - - - - - - -
31/04:30pm 21.2 SE 10 14 1017.1 - 0.0 - - - - - - -
31/04:00pm 21.7 SSE 9 14 1017.0 - 0.0 - - - - - - -
31/03:30pm 22.0 SSE 9 13 1017.0 - 0.0 - - - - - - -
31/03:00pm 22.0 SSE 9 13 1017.0 - 0.0 - - - - - - -
31/02:30pm 22.7 SSE 9 13 1017.0 - 0.0 - - - - - - -
31/02:00pm 21.8 S 10 15 1017.2 - 0.0 - - - - - - -
31/01:30pm 22.3 S 11 16 1017.4 - 0.0 - - - - - - -
31/01:00pm 21.8 S 12 19 1017.7 - 0.0 - - - - - - -
31/12:30pm 21.8 S 12 18 1018.2 - 0.0 - - - - - - -
31/12:00pm 21.8 S 12 19 1018.7 - 0.0 - - - - - - -
31/11:30am 21.8 S 11 16 1019.2 - 0.0 - - - - - - -
31/11:00am 21.9 S 10 15 1019.5 - 0.0 - - - - - - -
31/10:30am 21.8 S 11 15 1019.8 - 0.0 - - - - - - -
31/10:00am 21.6 S 10 16 1019.9 - 0.0 - - - - - - -
31/09:30am 21.4 S 9 14 1020.0 - 0.0 - - - - - - -
31/09:00am 21.1 S 9 14 1019.9 - 0.0 - - - - - - -
31/08:30am 19.7 S 11 16 1019.7 - 0.0 - - - - - - -
31/08:00am 20.3 S 10 14 1019.5 - 0.0 - - - - - - -
31/07:30am 19.5 S 9 12 1019.1 - 0.0 - - - - - - -
31/07:00am 19.7 S 9 13 1018.6 - 0.0 - - - - - - -
31/06:30am 19.6 SSE 7 10 1018.4 - 0.0 - - - - - - -
31/06:00am 19.5 SSE 5 9 1017.9 - 0.0 - - - - - - -
31/05:30am 19.6 SSE 6 9 1017.6 - 0.0 - - - - - - -
31/05:00am 19.7 SSE 7 11 1017.5 - 0.0 - - - - - - -
31/04:30am 19.7 SSE 7 9 1017.5 - 0.0 - - - - - - -
31/04:00am 19.8 SSE 7 10 1017.6 - 0.0 - - - - - - -
31/03:30am 19.7 SSE 8 13 1017.7 - 0.0 - - - - - - -
31/03:00am 19.7 SSE 8 13 1018.0 - 0.0 - - - - - - -
31/02:30am 19.5 SE 7 10 1018.2 - 0.0 - - - - - - -
31/02:00am 19.5 SSE 6 9 1018.7 - 0.0 - - - - - - -
31/01:30am 19.7 SE 8 11 1019.0 - 0.0 - - - - - - -
31/01:00am 19.5 SSE 6 9 1019.1 - 0.0 - - - - - - -
31/12:30am 19.8 SE 8 11 1019.3 - 0.0 - - - - - - -
31/12:00am 19.6 SE 7 10 1019.5 - 0.0 - - - - - - -
 
Date/Time
EST
Temp
°C
Wind Pressure Rain since
9am
mm
Weather Cloud Vis
km
Sea
Height
m
Swell
Dir  Spd
kts
Gust
kts
hPa Trend Height
m
Period
s
Dir
30/11:30pm 19.4 SE 7 9 1019.6 - 0.0 - - - - - - -
30/11:00pm 19.6 SE 7 11 1019.6 - 0.0 - - - - - - -
30/10:30pm 19.6 SE 7 9 1019.8 - 0.0 - - - - - - -
30/10:00pm 19.2 SE 6 9 1019.8 - 0.0 - - - - - - -
30/09:30pm 18.4 SE 5 8 1019.9 - 0.0 - - - - - - -
30/09:00pm 19.3 SE 5 7 1019.7 - 0.0 - - - - - - -
30/08:30pm 19.3 SE 7 10 1019.7 - 0.0 - - - - - - -
30/08:00pm 19.6 ESE 8 11 1019.6 - 0.0 - - - - - - -
30/07:30pm 19.9 ESE 8 11 1019.5 - 0.0 - - - - - - -
30/07:00pm 19.8 ESE 9 11 1019.0 - 0.0 - - - - - - -
30/06:30pm 19.6 ESE 8 10 1018.8 - 0.0 - - - - - - -
30/06:00pm 19.4 SE 9 11 1018.6 - 0.0 - - - - - - -
30/05:30pm 19.7 SE 8 11 1018.3 - 0.0 - - - - - - -
30/05:00pm 20.2 SE 9 12 1018.1 - 0.0 - - - - - - -
30/04:30pm 20.8 SE 8 11 1017.9 - 0.0 - - - - - - -
30/04:00pm 21.2 SSE 8 13 1017.8 - 0.0 - - - - - - -
30/03:30pm 21.6 SSE 9 13 1017.7 - 0.0 - - - - - - -
30/03:00pm 21.9 SSE 9 13 1017.8 - 0.0 - - - - - - -
30/02:30pm 22.0 SSE 10 15 1017.9 - 0.0 - - - - - - -
30/02:00pm 22.3 SSE 10 15 1017.9 - 0.0 - - - - - - -
30/01:30pm 22.8 S 10 14 1018.0 - 0.0 - - - - - - -
30/01:00pm 22.7 S 9 14 1018.3 - 0.0 - - - - - - -
30/12:30pm 23.0 S 10 15 1018.8 - 0.0 - - - - - - -
30/12:00pm 22.5 SSE 11 15 1019.4 - 0.0 - - - - - - -
30/11:30am 22.5 S 11 16 1020.0 - 0.0 - - - - - - -
30/11:00am 22.3 S 12 17 1020.3 - 0.0 - - - - - - -
30/10:30am 22.5 SSE 10 15 1020.5 - 0.0 - - - - - - -
30/10:00am 22.3 SSE 11 17 1020.5 - 0.0 - - - - - - -
30/09:30am 22.2 SSE 11 15 1020.6 - 0.0 - - - - - - -
30/09:00am 21.9 SSE 9 15 1020.5 - 0.0 - - - - - - -
30/08:30am 21.4 SSE 10 15 1020.2 - 0.0 - - - - - - -
30/08:00am 20.9 S 10 14 1020.0 - 0.0 - - - - - - -
30/07:30am 20.4 S 10 15 1019.8 - 0.0 - - - - - - -
30/07:00am 19.6 S 10 14 1019.6 - 0.0 - - - - - - -
30/06:30am 20.6 S 8 13 1019.1 - 0.0 - - - - - - -
30/06:00am 20.6 SE 9 14 1018.8 - 0.0 - - - - - - -
30/05:30am 20.7 SSE 10 15 1018.6 - 0.0 - - - - - - -
30/05:00am 20.8 SSE 9 14 1018.5 - 0.0 - - - - - - -
30/04:30am 20.9 SSE 9 13 1018.3 - 0.0 - - - - - - -
30/04:00am 20.7 SSE 9 14 1018.3 - 0.0 - - - - - - -
30/03:30am 20.7 SSE 9 14 1018.4 - 0.0 - - - - - - -
30/03:00am 20.9 SE 10 16 1018.9 - 0.0 - - - - - - -
30/02:30am 20.8 SSE 10 15 1019.0 - 0.0 - - - - - - -
30/02:00am 20.8 SSE 10 15 1019.2 - 0.0 - - - - - - -
30/01:30am 20.5 SSE 9 13 1019.5 - 0.0 - - - - - - -
30/01:00am 20.5 SSE 10 14 1019.9 - 0.0 - - - - - - -
30/12:30am 20.3 SSE 11 15 1020.1 - 0.0 - - - - - - -
30/12:00am 20.1 SE 10 12 1020.3 - 0.0 - - - - - - -
 
Date/Time
EST
Temp
°C
Wind Pressure Rain since
9am
mm
Weather Cloud Vis
km
Sea
Height
m
Swell
Dir  Spd
kts
Gust
kts
hPa Trend Height
m
Period
s
Dir
29/11:30pm 20.6 ESE 11 15 1020.3 - 0.0 - - - - - - -
29/11:00pm 20.4 ESE 10 12 1020.3 - 0.0 - - - - - - -
29/10:30pm 20.3 ESE 6 8 1020.5 - 0.0 - - - - - - -
29/10:00pm 19.9 ESE 8 11 1020.6 - 0.0 - - - - - - -
29/09:30pm 20.1 ESE 8 11 1020.4 - 0.0 - - - - - - -
29/09:00pm 19.8 ESE 8 10 1020.4 - 0.0 - - - - - - -
29/08:30pm 20.0 ESE 9 11 1020.5 - 0.0 - - - - - - -
29/08:00pm 19.9 ESE 9 10 1020.4 - 0.0 - - - - - - -
29/07:30pm 20.1 SE 10 14 1020.5 - 0.0 - - - - - - -
29/07:00pm 20.6 SE 10 13 1020.1 - 0.0 - - - - - - -
29/06:30pm 20.6 SE 9 13 1019.8 - 0.0 - - - - - - -
29/06:00pm 20.0 SSE 8 11 1019.5 - 0.0 - - - - - - -
29/05:30pm 20.1 SE 9 12 1019.4 - 0.0 - - - - - - -
29/05:00pm 20.4 SE 9 11 1019.3 - 0.0 - - - - - - -
29/04:30pm 21.0 SE 10 14 1019.2 - 0.0 - - - - - - -
29/04:00pm 21.5 SSE 9 12 1019.2 - 0.0 - - - - - - -
29/03:30pm 21.8 SSE 9 14 1019.1 - 0.0 - - - - - - -
29/03:00pm 22.2 SSE 9 13 1019.2 - 0.0 - - - - - - -
29/02:30pm 22.3 SSE 10 14 1019.1 - 0.0 - - - - - - -
29/02:00pm 22.5 SSE 10 15 1019.1 - 0.0 - - - - - - -
29/01:30pm 22.4 SSE 10 15 1019.3 - 0.0 - - - - - - -
29/01:00pm 22.6 SSE 10 15 1019.7 - 0.0 - - - - - - -
29/12:30pm 22.5 SSE 10 14 1020.3 - 0.0 - - - - - - -
29/12:00pm 22.3 SSE 11 15 1020.9 - 0.0 - - - - - - -
29/11:30am 22.8 SSE 11 16 1021.2 - 0.0 - - - - - - -
29/11:00am 23.3 SE 11 14 1021.8 - 0.0 - - - - - - -
29/10:30am 22.8 ESE 11 15 1022.0 - 0.0 - - - - - - -
29/10:00am 22.6 SE 12 16 1022.1 - 0.0 - - - - - - -
29/09:30am 21.3 SSE 12 15 1022.2 - 0.0 - - - - - - -
29/09:00am 20.2 S 11 17 1022.0 - 0.0 - - - - - - -
29/08:30am 19.7 SSE 11 16 1022.0 - 0.0 - - - - - - -
29/08:00am 19.6 S 11 16 1021.9 - 0.0 - - - - - - -
29/07:30am 19.6 S 11 16 1021.7 - 0.0 - - - - - - -
29/07:00am 19.4 SSE 10 15 1021.5 - 0.0 - - - - - - -
29/06:30am 19.5 SSE 10 14 1021.2 - 0.0 - - - - - - -
29/06:00am 20.1 SE 13 18 1021.0 - 0.0 - - - - - - -
29/05:30am 19.6 S 11 15 1020.6 - 0.0 - - - - - - -
29/05:00am 19.4 S 11 16 1020.4 - 0.0 - - - - - - -
29/04:30am 19.6 SSE 12 16 1020.1 - 0.0 - - - - - - -
29/04:00am 19.7 SSE 11 16 1019.9 - 0.0 - - - - - - -
29/03:30am 19.8 SSE 11 17 1019.9 - 0.0 - - - - - - -
29/03:00am 19.7 SSE 10 15 1020.2 - 0.0 - - - - - - -
29/02:30am 19.5 SSE 10 15 1020.3 - 0.0 - - - - - - -
29/02:00am 19.7 SSE 11 17 1020.4 - 0.0 - - - - - - -
29/01:30am 19.5 SSE 10 15 1020.6 - 0.0 - - - - - - -
29/01:00am 19.3 SSE 9 14 1021.1 - 0.0 - - - - - - -
29/12:30am 19.0 S 11 16 1021.3 - 0.0 - - - - - - -
29/12:00am 19.2 SSE 10 15 1021.6 - 0.0 - - - - - - -
 
Date/Time
EST
Temp
°C
Wind Pressure Rain since
9am
mm
Weather Cloud Vis
km
Sea
Height
m
Swell
Dir  Spd
kts
Gust
kts
hPa Trend Height
m
Period
s
Dir
28/11:30pm 19.1 SSE 10 14 1021.7 - 0.0 - - - - - - -
28/11:00pm 19.1 SSE 9 14 1021.9 - 0.0 - - - - - - -
28/10:30pm 19.2 SSE 9 15 1022.2 - 0.0 - - - - - - -
28/10:00pm 19.2 SSE 10 15 1022.4 - 0.0 - - - - - - -
28/09:30pm 19.2 SSE 11 15 1022.5 - 0.0 - - - - - - -
28/09:00pm 19.3 SSE 12 18 1022.3 - 0.0 - - - - - - -
28/08:30pm 19.4 SSE 13 19 1022.3 - 0.0 - - - - - - -
28/08:00pm 19.4 SSE 13 19 1022.2 - 0.0 - - - - - - -
28/07:30pm 19.6 SSE 12 18 1022.1 - 0.0 - - - - - - -
28/07:00pm 19.5 SSE 12 18 1021.9 - 0.0 - - - - - - -
28/06:30pm 19.6 SSE 12 17 1021.5 - 0.0 - - - - - - -
28/06:00pm 19.5 SSE 11 18 1021.3 - 0.0 - - - - - - -
28/05:30pm 19.1 SSE 12 17 1021.1 - 0.0 - - - - - - -

Other Formats:

Comma delimited format used in spreadsheet applications
http://www.bom.gov.au/fwo/IDQ60701/IDQ60701.94388.axf

JavaScript Object Notation format (JSON) in row-major order
http://www.bom.gov.au/fwo/IDQ60701/IDQ60701.94388.json